Regional Weather Roundup
Issued by NWS

Home | Current Version | Previous Version | Graphics & Text | Print | Product List | Glossary On
Versions: 1 2 3 4 5 6 7 8 9 10 11 12 13 14 15 16 17 18 19 20 21 22 23 24 25 26 27 28 29 30 31 32 33 34 35 36 37 38 39 40 41 42 43 44 45 46 47 48 49 50
000
ASUS43 KOAX 220302
RWRNE

WEATHER ROUNDUP FOR NEBRASKA
NATIONAL WEATHER SERVICE OMAHA NE
1000 PM CDT TUE OCT 21 2014

NOTES: SATELLITE DATA IS BEING USED TO AUGMENT CLOUD COVER ABOVE
       12000 FEET.
       "FAIR" INDICATES FEW OR NO CLOUDS BELOW 12,000 FEET WITH NO
       SIGNIFICANT WEATHER AND/OR OBSTRUCTIONS TO VISIBILITY.

  * THESE STATIONS DO NOT REPORT WEATHER SUCH AS RAIN...SNOW OR FOG.

NEZ001>004-019>022-054>056-220400-
NEBRASKA PANHANDLE

CITY           SKY/WX    TMP DP  RH WIND       PRES   REMARKS
SCOTTSBLUFF    MOCLDY    63  46  54 NW14      29.88R
ALLIANCE       PTCLDY    52  43  71 CALM      29.87S
CHADRON        CLOUDY    63  44  50 SW7       29.81S
KIMBALL        MOCLDY    59  42  53 N3        29.92R
SIDNEY         PTCLDY    57  40  52 S12       29.90S
$$

NEZ057>060-069>072-079>082-220400-
SOUTHWEST NEBRASKA

CITY           SKY/WX    TMP DP  RH WIND       PRES   REMARKS
NORTH PLATTE   CLEAR     62  54  74 E9        29.91R
IMPERIAL       PTCLDY    63  48  58 SE12      29.91R
LEXINGTON      CLEAR     66  58  76 SE14      29.93F
MCCOOK         CLEAR     67  53  61 S13       29.93R
OGALLALA       PTCLDY    66  52  59 S13G20    29.89R
$$

NEZ005>010-023>029-035>040-094-220400-
NORTH CENTRAL NEBRASKA

CITY           SKY/WX    TMP DP  RH WIND       PRES   REMARKS
VALENTINE      PTCLDY    67  55  65 S23G30    29.85S
AINSWORTH      PTCLDY    64  51  63 S16G23    29.89S
BROKEN BOW     PTCLDY    63  53  70 SE13      29.94S
O`NEILL        CLEAR     64  42  45 SE15      29.95S
ORD            CLEAR     60  51  72 E7        29.94S
THEDFORD       CLEAR     66  57  71 S15G21    29.90S
$$

NEZ041-046>049-061>064-073>077-083>087-220400-
SOUTH CENTRAL NEBRASKA

CITY           SKY/WX    TMP DP  RH WIND       PRES   REMARKS
GRAND ISLAND   CLEAR     64  48  56 SE13      29.98S
AURORA         CLEAR     60  40  47 SE10      30.00R HAZE
HASTINGS       CLEAR     62  49  62 SE12      29.98S
HEBRON         CLEAR     60  47  61 SE8       30.02S
HOLDREGE       CLEAR     64  55  72 SE14      29.96S
KEARNEY *      CLEAR     63  52  67 SE16G22   29.97S
YORK           PTCLDY    61  41  48 SE13      30.01S
$$

NEZ011>018-030>034-042>045-220400-
NORTHEAST NEBRASKA

CITY           SKY/WX    TMP DP  RH WIND       PRES   REMARKS
NORFOLK        CLEAR     61  39  44 SE16      30.01R
ALBION         CLEAR     58  41  53 SE9       29.99S
BLAIR          CLEAR     62  40  45 SE9       30.06R
COLUMBUS *     CLEAR     59  37  44 SE6       30.04R
FREMONT        CLEAR     61  39  43 SE9       30.05R
TEKAMAH        CLEAR     55  40  56 SE9       30.06R
WAYNE          CLEAR     60  40  47 SE13      30.03R
$$

NEZ050>053-065>068-078-088>093-220400-
SOUTHEAST NEBRASKA

CITY           SKY/WX    TMP DP  RH WIND       PRES   REMARKS
LINCOLN        CLEAR     62  40  44 SE10      30.05R
OMAHA EPPLEY   CLEAR     58  40  51 S8        30.07R
BEATRICE       CLEAR     61  42  49 SE9       30.04S
FALLS CITY     CLEAR     56  42  59 SE7       30.08R
NEBRASKA CITY  CLEAR     57  36  46 SE9       30.08R
PLATTSMOUTH    CLEAR     57  39  51 SE7       30.07R
$$

NEZ044-045-051>053-067-220400-
OMAHA AREA

CITY           SKY/WX    TMP DP  RH WIND       PRES   REMARKS
OMAHA EPPLEY   CLEAR     58  40  51 S8        30.07R
BLAIR          CLEAR     62  40  45 SE9       30.06R
FREMONT        CLEAR     61  39  43 SE9       30.05R
MILLARD        CLEAR     58  41  53 SE3       30.06S
OFFUTT AFB     CLEAR     56  44  66 E10       30.07R
PLATTSMOUTH    CLEAR     57  39  51 SE7       30.07R
WAHOO          FAIR      54  39  57 SE7       30.05R
$$



USA.gov is the U.S. government's official web portal to all federal, state and local government web resources and services.